Temp
20 20 20 20 17 13 15 16 18 21 22 25 25 25 25 27 23 22 29 29 29 27 26 26 26 25 25 25 25 25 25 25 24 24 24 23 23 23 23 22 22 22 22 22 21 21 21 21 20
20 20 20 20 15 15 15 16 19 20 23 24 25 25 23 24 28 28 30 29 28 28 27 26 26 26 26 26 25 25 25 25 25 24 24 24 23 23 23 22 22 22 22 22 21 21 21 20 20
20 19 20 15 12 14 17 17 19 22 23 23 24 26 26 26 27 28 29 29 27 27 26 26 26 26 26 26 26 26 25 25 25 24 24 24 23 23 23 22 22 22 22 22 21 21 21 20 20
19 19 18 15 16 17 19 20 19 19 24 24 24 23 27 27 28 27 29 29 28 27 27 26 26 26 26 26 26 26 25 25 25 24 24 24 23 23 23 22 22 22 22 21 21 21 21 20 20
19 18 15 15 16 18 19 20 21 20 21 23 23 23 24 25 26 29 29 28 28 27 27 26 26 26 26 26 26 26 25 25 25 24 24 24 23 23 23 23 22 22 22 22 21 21 21 20 20
18 17 14 16 19 20 20 22 21 21 22 23 23 23 24 23 23 26 28 27 27 27 26 26 25 25 26 26 26 26 25 25 25 25 24 24 23 23 23 23 23 22 22 22 22 21 21 20 20
16 14 15 16 18 20 21 22 22 21 21 23 23 22 24 23 24 25 26 27 27 27 26 26 25 25 25 25 25 25 25 25 25 25 24 24 24 23 23 23 23 22 22 22 22 21 21 21 20
18 14 15 16 19 19 21 21 22 22 21 22 23 21 22 23 22 24 25 26 26 26 26 26 25 25 25 25 25 25 25 25 25 25 24 24 24 24 23 23 23 22 22 22 21 21 21 21 21
17 14 13 17 18 19 21 20 21 21 22 21 23 23 22 23 21 22 25 25 26 26 26 26 25 25 26 25 25 25 24 24 24 24 24 24 24 24 23 23 23 22 22 22 22 21 21 21 21
15 11 15 17 19 19 20 20 20 20 20 20 22 23 23 23 22 21 21 26 26 26 26 26 25 25 26 26 25 25 24 24 24 24 24 24 24 24 23 23 23 22 22 22 22 21 21 21 21
14 12 16 18 18 19 18 19 20 19 19 21 21 22 22 23 23 23 22 23 28 27 26 26 26 25 26 26 25 25 25 24 24 24 24 24 24 23 23 23 23 22 22 22 22 22 21 21 21
14 15 16 17 18 18 18 19 19 19 20 20 21 21 22 23 24 24 24 23 24 26 27 26 26 25 26 26 25 25 25 25 24 24 24 24 24 23 23 23 23 23 23 22 22 21 21 21 20
14 14 15 16 16 17 18 17 18 19 19 20 21 22 23 23 24 24 24 24 24 24 24 26 25 25 26 26 26 25 25 25 25 24 25 24 24 24 23 23 23 23 22 22 21 21 21 21 20
13 13 14 15 16 16 16 17 18 20 20 20 21 22 22 23 23 24 24 25 24 24 25 26 24 25 26 26 25 26 25 25 25 25 25 25 25 25 24 23 23 23 22 22 21 21 20 20 19
14 13 13 14 15 15 18 15 17 19 20 20 21 21 22 22 23 24 24 24 24 24 24 26 26 25 26 26 26 25 26 26 26 26 25 25 25 25 24 24 23 22 22 21 21 20 20 20 19
11 10 11 13 14 16 16 15 17 18 19 19 19 20 20 21 22 23 23 24 24 24 24 25 25 25 25 25 26 25 26 26 25 26 25 25 25 25 25 24 23 22 22 21 20 20 20 19 19
8 10 12 12 14 14 15 14 16 18 18 18 19 18 19 20 21 22 23 24 24 23 23 24 24 25 25 25 25 25 26 25 25 26 25 25 24 25 24 24 23 21 21 21 20 20 19 19 18
11 10 11 11 12 12 11 12 14 16 16 16 17 18 18 19 20 20 21 23 24 24 23 23 23 24 24 24 24 24 24 25 25 25 25 25 25 24 24 24 23 22 22 20 20 20 19 18 18
11 11 11 11 12 11 11 12 13 14 15 15 17 18 18 18 19 20 20 21 22 24 24 23 23 24 24 24 23 23 23 24 25 26 26 25 26 25 23 24 23 23 22 21 20 19 18 18 17
12 11 11 10 12 12 11 12 13 13 14 16 16 17 18 18 19 19 20 20 21 22 24 24 23 24 25 25 24 24 24 24 24 25 25 25 25 24 24 24 24 23 22 20 20 19 18 18 17
11 11 11 10 11 11 10 12 12 13 14 15 16 17 17 17 17 18 19 19 20 21 22 23 24 23 24 25 24 24 24 24 24 24 25 26 26 24 23 24 24 23 21 20 20 19 18 18 17
11 12 11 11 9 7 11 8 11 12 12 12 14 16 17 17 17 17 17 18 19 20 20 21 22 23 23 23 24 25 25 25 25 25 25 25 25 25 24 24 23 22 21 20 19 19 18 17 16
11 12 11 11 9 8 9 7 10 11 12 12 14 15 16 16 16 16 16 17 18 18 19 20 21 22 23 23 23 24 24 25 25 25 25 25 24 24 24 23 22 22 21 20 20 19 19 17 16
11 11 9 6 6 6 7 7 9 10 12 12 12 14 14 14 15 15 16 16 17 18 18 19 20 21 22 23 24 24 24 24 24 25 25 24 23 24 24 23 22 21 21 20 20 19 18 17 16
9 7 6 6 6 7 8 8 9 10 12 12 12 13 15 15 15 15 15 16 16 17 18 19 19 21 21 21 23 23 23 23 25 24 24 24 23 24 23 22 22 21 20 20 19 18 17 17 17
8 7 5 6 7 8 9 7 8 11 11 12 12 12 13 14 14 14 14 15 15 16 17 18 19 20 21 21 23 23 22 22 23 24 24 23 24 24 23 22 21 20 19 19 18 17 16 16 16
8 7 7 7 6 3 7 7 9 11 10 10 10 12 13 14 14 14 14 14 15 15 15 16 18 20 21 22 22 23 24 24 23 24 23 23 23 23 22 21 20 19 18 18 17 17 16 15 16
9 8 6 3 6 7 8 8 9 10 10 10 9 10 13 13 14 14 14 14 14 14 15 16 17 19 20 21 22 23 24 24 24 24 23 23 23 22 21 20 20 19 18 17 16 16 15 16 15
7 7 5 5 5 5 7 8 9 9 9 9 9 11 11 12 13 13 13 13 14 14 15 16 17 18 19 21 22 23 24 25 24 24 22 23 22 22 21 20 19 18 17 16 16 15 15 15 15
8 7 6 7 6 4 6 9 10 8 8 7 8 9 10 10 11 12 12 13 14 14 14 15 17 18 19 21 21 22 24 24 23 23 22 22 22 20 20 19 18 17 16 16 15 15 15 15 15
Height
1492 1490 1492 1495 1505 1512 1517 1509 1494 1489 1486 1483 1484 1485 1480 1477 1482 1493 1463 1465 1470 1475 1478 1482 1485 1490 1494 1498 1501 1504 1507 1509 1512 1515 1516 1518 1519 1521 1523 1524 1527 1528 1530 1531 1532 1532 1533 1534 1534
1492 1490 1493 1494 1511 1520 1515 1498 1494 1486 1484 1482 1479 1477 1478 1468 1466 1465 1463 1463 1469 1472 1476 1480 1483 1488 1493 1497 1501 1504 1507 1510 1512 1515 1518 1520 1520 1522 1524 1525 1527 1529 1531 1533 1534 1534 1535 1535 1536
1492 1491 1492 1497 1513 1514 1507 1490 1487 1484 1482 1479 1476 1473 1471 1465 1461 1457 1457 1464 1467 1472 1477 1481 1483 1486 1490 1496 1500 1504 1507 1510 1512 1514 1517 1520 1522 1522 1524 1526 1528 1530 1532 1534 1535 1536 1537 1537 1537
1492 1493 1493 1501 1501 1495 1490 1483 1483 1481 1479 1478 1476 1472 1467 1463 1460 1457 1456 1459 1465 1470 1476 1481 1484 1486 1489 1495 1500 1504 1508 1511 1513 1516 1518 1519 1522 1524 1525 1527 1528 1530 1532 1534 1536 1536 1537 1537 1538
1492 1490 1497 1502 1495 1488 1484 1481 1481 1481 1480 1477 1474 1469 1465 1461 1459 1454 1453 1459 1464 1469 1476 1481 1484 1489 1489 1493 1498 1503 1507 1510 1512 1515 1518 1521 1522 1524 1526 1527 1529 1530 1532 1533 1535 1536 1536 1537 1538
1490 1489 1503 1502 1488 1483 1480 1478 1477 1477 1478 1474 1471 1466 1462 1463 1458 1453 1454 1459 1467 1473 1478 1483 1486 1490 1491 1493 1497 1502 1505 1509 1512 1515 1518 1520 1522 1524 1525 1527 1529 1530 1531 1532 1533 1535 1536 1536 1537
1487 1491 1497 1490 1487 1485 1479 1477 1476 1477 1476 1472 1470 1465 1462 1458 1457 1456 1456 1461 1468 1473 1478 1482 1486 1492 1494 1495 1498 1502 1505 1508 1511 1514 1516 1518 1521 1523 1524 1526 1527 1528 1531 1532 1534 1533 1534 1535 1536
1484 1487 1491 1487 1484 1486 1477 1475 1476 1477 1475 1472 1470 1469 1465 1462 1457 1459 1458 1462 1468 1471 1477 1482 1484 1489 1492 1494 1498 1501 1505 1507 1510 1513 1515 1518 1520 1521 1523 1524 1525 1527 1528 1529 1532 1532 1533 1534 1535
1481 1491 1496 1486 1483 1480 1474 1475 1475 1475 1474 1473 1470 1470 1469 1466 1460 1462 1462 1463 1467 1472 1476 1481 1484 1488 1491 1494 1497 1499 1504 1507 1510 1513 1515 1517 1518 1520 1521 1523 1525 1525 1528 1528 1529 1530 1531 1532 1533
1480 1489 1485 1480 1479 1480 1475 1474 1476 1475 1472 1471 1467 1467 1467 1468 1464 1464 1465 1462 1466 1471 1474 1479 1482 1486 1490 1493 1495 1497 1501 1503 1507 1509 1512 1513 1514 1517 1519 1520 1523 1523 1525 1526 1527 1528 1528 1529 1530
1478 1484 1477 1477 1477 1479 1478 1471 1474 1473 1467 1470 1469 1464 1465 1464 1466 1467 1465 1467 1462 1467 1473 1476 1480 1484 1488 1490 1493 1496 1498 1501 1504 1507 1509 1511 1513 1515 1516 1517 1519 1521 1523 1524 1524 1525 1524 1526 1527
1481 1477 1477 1477 1477 1476 1476 1473 1466 1469 1467 1469 1470 1467 1464 1463 1464 1463 1464 1465 1467 1469 1470 1474 1475 1480 1483 1487 1490 1494 1497 1499 1502 1504 1506 1508 1510 1513 1514 1515 1515 1518 1519 1521 1521 1521 1521 1522 1524
1480 1479 1478 1476 1475 1474 1474 1469 1465 1456 1466 1465 1465 1465 1461 1460 1461 1463 1463 1460 1463 1466 1466 1470 1473 1478 1481 1485 1487 1491 1494 1496 1500 1502 1504 1505 1506 1508 1511 1512 1513 1514 1516 1516 1518 1518 1518 1518 1520
1476 1477 1475 1472 1472 1470 1471 1467 1463 1456 1460 1462 1460 1460 1459 1457 1456 1458 1462 1457 1458 1461 1466 1467 1474 1475 1477 1481 1483 1486 1489 1493 1496 1499 1499 1500 1503 1504 1506 1507 1509 1510 1512 1513 1514 1514 1515 1514 1515
1475 1476 1471 1466 1464 1464 1466 1460 1456 1456 1458 1459 1457 1457 1458 1457 1454 1452 1456 1456 1458 1460 1463 1466 1470 1472 1473 1475 1479 1483 1486 1488 1492 1495 1496 1497 1498 1499 1500 1502 1503 1505 1507 1508 1508 1509 1510 1509 1510
1479 1479 1482 1467 1466 1464 1465 1462 1455 1456 1456 1456 1456 1455 1455 1454 1451 1450 1451 1452 1455 1457 1457 1461 1462 1466 1469 1473 1475 1478 1481 1483 1486 1492 1490 1493 1495 1495 1496 1497 1498 1501 1503 1504 1504 1505 1505 1505 1506
1485 1486 1481 1475 1466 1465 1465 1466 1454 1456 1457 1456 1455 1452 1453 1453 1451 1451 1449 1449 1451 1452 1454 1455 1458 1460 1464 1467 1471 1476 1474 1478 1481 1486 1489 1489 1491 1491 1493 1494 1494 1497 1498 1499 1500 1501 1500 1501 1502
1485 1485 1480 1479 1468 1467 1466 1465 1459 1455 1454 1453 1452 1450 1450 1450 1448 1449 1448 1448 1447 1448 1450 1453 1454 1457 1459 1462 1465 1469 1471 1473 1476 1476 1481 1485 1490 1486 1489 1489 1489 1492 1493 1494 1495 1495 1496 1496 1497
1478 1481 1481 1475 1468 1467 1464 1460 1457 1452 1450 1449 1448 1447 1446 1446 1445 1446 1446 1445 1444 1444 1444 1446 1449 1451 1453 1456 1458 1463 1465 1468 1471 1472 1473 1474 1479 1479 1483 1483 1486 1487 1487 1488 1490 1491 1490 1490 1492
1474 1476 1477 1473 1467 1467 1463 1452 1447 1446 1442 1442 1444 1444 1441 1440 1441 1442 1441 1440 1439 1439 1439 1440 1442 1446 1448 1450 1453 1457 1460 1461 1464 1466 1467 1469 1471 1475 1477 1480 1481 1483 1483 1482 1483 1485 1485 1485 1486
1473 1474 1475 1476 1467 1462 1459 1441 1442 1439 1438 1438 1440 1441 1439 1438 1436 1436 1436 1436 1434 1436 1433 1435 1436 1438 1442 1445 1447 1450 1453 1453 1457 1460 1461 1463 1465 1470 1473 1475 1476 1478 1477 1477 1478 1479 1480 1480 1481
1474 1468 1469 1470 1474 1482 1465 1467 1441 1438 1436 1433 1433 1435 1435 1435 1434 1434 1432 1431 1431 1431 1429 1430 1430 1432 1433 1438 1440 1442 1443 1445 1448 1453 1454 1456 1459 1464 1468 1470 1470 1472 1471 1471 1471 1473 1474 1474 1475
1472 1466 1469 1469 1474 1475 1471 1479 1446 1436 1439 1436 1428 1424 1426 1428 1428 1427 1427 1427 1425 1422 1425 1424 1423 1423 1425 1427 1429 1432 1435 1438 1442 1444 1445 1447 1452 1458 1460 1463 1464 1464 1464 1464 1464 1466 1469 1471 1469
1467 1470 1473 1478 1481 1487 1470 1473 1441 1438 1433 1428 1422 1421 1421 1423 1422 1421 1420 1420 1419 1419 1419 1418 1417 1417 1417 1418 1418 1419 1424 1429 1431 1433 1435 1439 1446 1451 1454 1455 1456 1458 1457 1458 1459 1460 1463 1466 1466
1471 1482 1493 1488 1483 1476 1464 1468 1440 1428 1425 1423 1421 1419 1416 1416 1416 1415 1413 1412 1412 1411 1410 1410 1410 1410 1411 1410 1409 1409 1416 1420 1423 1424 1427 1433 1439 1443 1446 1447 1449 1451 1450 1451 1453 1455 1458 1461 1462
1473 1479 1494 1488 1479 1465 1458 1461 1434 1420 1419 1417 1416 1416 1414 1412 1411 1409 1407 1405 1403 1403 1401 1400 1399 1399 1400 1401 1401 1403 1409 1411 1414 1417 1421 1426 1432 1435 1439 1441 1443 1444 1444 1446 1448 1450 1453 1455 1457
1471 1476 1469 1475 1477 1493 1455 1444 1422 1416 1414 1415 1414 1413 1410 1408 1406 1403 1401 1398 1394 1392 1392 1391 1388 1387 1389 1391 1393 1397 1400 1402 1406 1411 1415 1420 1425 1428 1431 1434 1437 1438 1439 1442 1445 1446 1448 1451 1454
1461 1463 1476 1488 1479 1465 1445 1438 1428 1417 1414 1413 1411 1406 1404 1403 1401 1397 1394 1392 1388 1384 1382 1382 1383 1381 1382 1383 1386 1389 1392 1396 1400 1404 1408 1413 1417 1420 1424 1427 1430 1432 1435 1438 1440 1443 1445 1448 1451
1464 1467 1471 1475 1475 1472 1451 1420 1412 1412 1411 1410 1406 1403 1402 1400 1396 1393 1388 1384 1381 1376 1375 1374 1374 1375 1375 1377 1379 1381 1385 1389 1392 1396 1401 1406 1410 1413 1417 1420 1424 1427 1431 1433 1436 1440 1443 1446 1449
1454 1459 1464 1465 1465 1468 1455 1409 1408 1410 1409 1408 1403 1401 1398 1395 1390 1385 1381 1376 1374 1370 1367 1365 1364 1365 1368 1370 1372 1373 1376 1380 1384 1389 1394 1399 1403 1406 1411 1415 1418 1424 1427 1430 1433 1437 1440 1443 1446
Wind_Speed
6 1 3 2 3 4 2 6 3 4 6 6 9 5 8 8 7 6 6 21 33 38 38 35 32 30 28 27 27 26 25 25 24 23 22 21 21 20 19 18 16 15 14 14 13 12 10 10 9
5 2 3 2 4 1 4 4 5 6 5 18 16 7 8 13 28 31 22 31 38 41 41 39 36 34 32 30 30 28 27 27 26 24 23 22 21 20 18 17 16 14 13 12 11 10 9 9 8
3 2 3 3 3 6 5 5 4 3 14 11 4 13 7 6 10 10 28 35 43 43 42 41 39 37 35 32 31 29 28 27 26 25 23 21 19 18 17 16 14 12 11 11 9 8 7 6 6
3 3 3 4 9 4 4 2 4 7 9 4 10 9 10 13 13 17 21 45 46 45 43 42 40 39 36 34 31 27 27 25 24 23 22 20 18 17 15 13 12 11 10 9 8 7 5 5 5
6 2 2 2 5 3 3 8 9 6 5 13 14 8 11 7 11 14 21 46 47 47 44 43 41 38 37 34 31 29 27 25 23 22 20 18 17 15 14 12 11 10 8 7 7 6 6 4 3
3 2 2 5 4 2 3 7 5 4 4 12 16 14 5 19 11 13 32 46 47 45 43 43 41 39 36 34 32 30 28 25 23 21 20 18 16 15 13 11 10 10 8 7 6 5 4 4 3
5 3 5 5 1 4 2 4 3 5 5 5 16 5 8 41 24 15 32 43 46 44 44 44 41 39 35 33 32 29 28 25 23 21 20 18 17 15 14 13 12 11 9 8 8 7 6 7 6
5 4 3 5 5 4 3 7 9 6 4 20 14 6 11 41 16 13 36 39 48 46 44 43 43 40 37 35 33 31 28 26 24 22 20 19 18 17 16 16 15 13 12 11 11 11 11 11 9
6 1 4 5 4 2 10 5 6 7 10 16 3 12 22 29 11 11 31 37 47 46 44 43 42 41 38 36 34 32 30 27 25 23 22 21 20 20 20 18 17 16 15 14 14 14 14 15 14
4 4 7 3 0 4 16 9 14 6 13 9 15 20 26 26 13 10 24 38 46 46 46 44 42 41 38 36 35 34 32 31 29 26 25 25 23 22 21 20 20 19 18 18 18 18 18 19 18
2 4 2 0 1 5 7 22 8 9 11 2 21 31 29 24 19 14 15 28 46 48 46 45 43 41 39 38 37 35 34 32 30 28 27 27 26 24 24 23 23 21 21 22 21 22 22 21 20
1 3 3 1 5 7 5 16 14 20 19 19 16 27 21 22 20 18 18 22 37 43 46 47 46 44 41 40 37 34 33 32 31 30 28 28 27 27 26 26 24 23 23 24 24 23 24 24 23
3 1 5 9 8 8 14 14 19 27 23 22 18 15 18 18 15 17 18 20 27 40 48 48 48 44 41 40 37 35 35 32 31 30 28 28 29 28 27 28 27 26 24 26 26 25 25 26 26
2 3 8 5 11 10 8 13 19 10 6 19 14 12 14 16 16 17 19 16 25 32 40 43 44 44 43 41 40 37 36 31 30 30 29 28 29 30 30 30 30 28 24 26 25 25 25 25 26
4 4 6 6 7 7 12 13 12 25 16 15 20 23 26 24 22 18 20 18 18 29 33 31 43 46 46 44 42 37 34 32 30 27 28 25 29 28 30 29 29 27 22 24 23 23 23 24 23
3 4 4 5 2 6 7 7 4 13 6 9 9 7 8 10 14 18 19 21 21 21 28 33 36 42 43 43 41 35 32 30 27 27 24 26 26 25 27 28 28 25 21 22 23 22 21 22 21
5 0 1 7 1 4 2 5 3 19 11 15 13 11 13 15 11 10 16 19 19 21 25 31 35 36 38 38 39 34 42 33 31 34 27 35 34 27 28 27 27 25 22 25 23 23 21 21 20
3 3 4 4 5 5 9 6 8 18 20 16 15 15 11 13 15 13 10 16 23 21 23 29 29 25 31 37 40 37 34 31 34 36 36 39 43 34 28 25 26 25 26 28 25 25 23 21 20
2 3 4 4 4 6 9 10 9 14 16 11 14 13 15 13 12 14 14 10 12 24 23 25 34 33 32 34 40 42 39 39 40 40 43 48 36 41 26 25 27 27 30 28 26 26 25 23 22
3 2 3 5 6 5 8 18 12 7 7 11 11 13 18 15 17 17 14 13 11 12 24 25 30 35 32 34 39 44 49 48 44 47 50 52 43 34 28 26 28 29 32 29 27 26 25 24 23
1 3 2 5 5 5 7 12 5 4 5 11 16 16 12 23 23 17 14 16 17 14 11 24 28 31 36 30 36 40 40 39 43 45 48 47 45 37 29 27 31 31 33 31 28 26 25 23 21
3 4 3 4 6 4 5 9 5 6 11 7 13 11 23 25 15 12 13 16 18 19 17 16 21 34 38 38 39 39 41 43 45 47 55 54 50 38 32 31 33 33 33 30 28 27 24 22 22
6 1 3 2 4 3 3 3 2 8 10 12 17 30 27 14 13 15 16 17 18 18 21 20 19 21 30 37 40 41 40 42 43 46 47 50 50 33 31 35 34 31 31 27 24 24 22 21 19
3 2 3 3 2 1 4 6 6 3 4 6 5 13 11 13 14 14 16 17 20 20 21 21 20 20 19 27 36 37 39 39 43 42 40 41 33 29 32 34 31 28 28 26 25 19 20 16 15
5 5 4 4 2 5 4 0 14 10 19 15 12 16 16 12 13 17 19 22 24 22 23 23 22 22 18 17 25 31 36 38 38 36 35 33 31 32 32 31 28 26 24 24 21 18 16 15 17
6 7 4 5 3 9 4 7 8 5 7 9 9 12 15 17 17 22 24 29 30 24 20 24 25 26 24 19 20 22 29 38 40 32 30 32 33 29 28 26 24 22 18 19 18 17 15 14 16
3 4 4 3 2 2 5 6 13 15 13 8 14 17 21 20 22 31 29 32 34 30 24 20 25 27 28 25 21 24 27 26 32 32 31 33 32 31 27 25 23 18 17 18 18 17 14 14 16
5 5 1 2 4 5 4 10 11 7 6 8 10 15 23 23 33 40 35 34 37 33 27 22 21 27 29 28 24 26 28 29 30 34 34 34 33 30 26 24 21 19 19 19 17 14 14 14 14
1 2 3 3 4 3 7 9 6 9 10 9 11 22 27 28 41 41 40 36 33 31 23 23 23 26 28 29 26 27 33 31 32 35 38 35 31 28 24 22 22 20 21 19 16 15 15 14 16
5 5 7 3 4 4 5 19 8 7 9 7 16 24 31 35 41 45 38 35 34 22 23 22 23 25 27 28 27 27 31 35 32 32 37 34 31 24 22 20 21 21 19 17 17 16 17 17 15
Wind_Direction
332 347 160 190 70 66 246 260 281 313 344 175 302 222 231 234 172 215 282 199 183 177 171 166 158 159 158 155 153 150 147 146 146 145 144 141 136 135 133 128 125 122 120 116 114 112 113 112 114
315 139 157 130 101 127 261 240 235 223 288 308 301 262 226 256 258 242 247 189 183 179 172 168 161 158 157 156 154 151 150 150 149 149 148 147 145 144 140 137 135 132 127 122 120 120 120 119 121
268 192 162 106 139 200 210 212 229 274 309 279 285 280 266 258 269 229 219 197 181 180 175 171 165 160 160 160 158 156 156 156 156 156 156 156 155 151 150 148 144 142 140 137 136 135 130 127 117
220 203 67 103 243 256 215 208 213 327 331 319 292 296 304 283 278 231 233 185 179 180 178 175 169 166 163 164 163 162 164 163 163 164 165 165 166 164 162 160 158 159 159 153 151 148 148 143 139
198 197 95 250 249 251 231 263 281 286 282 304 327 291 285 256 249 234 201 177 182 180 180 178 173 174 168 168 168 170 172 172 171 173 176 178 178 179 177 176 180 181 175 172 171 170 170 171 163
181 138 104 236 249 279 277 260 253 232 305 319 335 309 326 351 327 216 187 175 184 181 181 181 178 181 175 173 175 177 178 180 181 184 187 190 194 196 196 198 202 205 202 199 203 204 205 209 211
153 122 212 257 162 330 273 335 274 326 324 320 337 341 338 348 332 196 180 180 182 185 185 183 182 186 184 181 183 184 186 187 190 193 197 202 208 211 214 218 221 223 229 230 235 236 240 243 242
176 134 215 224 225 231 277 327 319 8 311 321 345 1 342 347 316 212 181 185 185 187 189 189 186 188 190 189 190 191 195 196 200 203 208 212 217 221 226 230 232 235 238 243 246 250 256 256 255
163 120 217 239 201 243 297 4 317 300 293 317 306 326 344 347 315 230 194 191 189 191 192 194 190 193 195 196 196 197 201 205 209 213 218 222 227 231 232 240 242 245 248 252 254 255 259 261 262
167 180 213 215 292 332 306 288 308 319 314 305 325 315 334 342 320 237 206 196 194 197 197 198 196 198 198 202 203 204 206 209 214 218 223 228 232 237 242 244 248 250 254 256 258 261 259 260 265
169 198 219 117 355 306 277 296 308 302 290 328 318 315 324 333 333 265 227 216 201 203 203 201 201 201 204 207 208 210 211 214 218 224 228 235 239 241 244 248 251 254 260 261 262 266 268 266 268
299 252 340 323 324 308 275 298 286 267 275 293 299 302 312 314 317 319 261 245 216 210 210 207 204 204 207 211 212 214 219 221 224 228 233 241 244 247 252 256 257 260 267 266 267 267 272 272 269
169 4 345 312 297 281 283 274 277 274 286 299 302 296 305 307 302 302 317 263 249 225 217 212 209 208 211 214 215 218 222 226 231 235 241 246 255 256 261 265 265 267 269 272 271 272 272 275 274
317 287 292 264 268 261 249 263 255 275 353 316 305 297 299 309 309 296 293 308 257 235 222 220 221 213 216 219 219 223 224 230 238 242 246 251 262 268 267 269 271 271 275 276 275 275 274 273 274
267 294 307 245 244 232 227 261 254 276 289 267 278 285 289 290 297 302 300 295 286 243 228 219 234 223 222 222 226 226 233 233 243 250 253 265 264 268 270 269 270 270 274 272 272 272 270 270 273
38 41 12 288 353 270 186 263 19 18 26 333 345 340 323 290 285 289 292 299 286 260 247 232 225 228 230 231 232 230 235 237 242 245 255 262 260 263 266 267 270 270 267 267 269 269 268 268 271
3 135 262 313 267 311 175 299 318 325 311 314 311 324 328 328 321 279 271 276 289 278 262 238 234 234 233 232 228 241 229 224 228 253 260 265 265 260 262 268 274 273 268 266 267 269 266 267 271
284 353 315 264 301 349 302 266 279 310 307 297 299 310 316 323 324 324 298 260 262 270 270 249 254 249 242 236 232 227 230 231 242 257 245 241 255 257 259 266 275 278 273 267 268 269 270 268 269
225 190 225 261 280 350 304 296 291 287 290 281 291 297 310 318 325 310 310 308 275 254 258 259 243 255 254 242 233 227 232 234 242 249 234 247 247 253 259 267 272 274 274 275 272 268 267 268 266
172 186 294 288 288 322 287 289 288 240 250 265 283 296 302 310 317 311 301 294 288 281 244 247 259 247 245 246 240 239 247 251 247 239 245 249 256 258 260 266 271 274 275 274 274 271 271 270 262
275 182 250 256 311 271 319 283 217 224 247 276 282 282 286 307 311 307 291 287 283 278 261 242 244 255 250 250 249 249 253 257 254 249 252 260 264 259 259 267 270 273 277 278 276 275 275 272 266
312 197 241 291 5 309 74 292 262 210 244 259 266 275 297 293 288 304 308 295 283 273 278 266 247 239 243 245 248 250 256 259 255 261 258 259 263 265 258 264 266 269 274 272 274 272 273 269 262
225 199 273 249 258 335 218 246 259 330 291 270 262 265 265 245 281 298 305 308 299 294 280 276 273 257 241 240 238 244 250 250 249 255 259 256 258 259 251 258 261 264 267 261 271 266 262 266 261
72 20 334 38 105 318 236 188 279 215 233 286 277 274 259 287 296 304 307 311 304 297 291 282 274 271 257 243 237 238 245 252 254 254 256 256 252 243 250 253 256 264 268 259 260 252 253 264 255
77 53 329 328 349 236 176 309 253 279 288 269 266 267 286 293 305 317 320 320 317 301 291 287 279 266 266 259 246 238 242 243 256 253 248 247 236 243 249 251 258 268 268 254 240 236 239 243 243
218 160 172 260 231 286 242 245 254 238 270 260 241 266 282 289 313 329 328 325 323 303 289 288 284 273 269 273 255 253 247 249 250 248 241 237 235 249 251 252 256 262 249 230 224 224 234 234 238
171 183 197 233 234 360 229 274 290 261 254 239 253 271 276 291 312 323 322 326 319 306 289 288 286 279 271 270 262 248 250 253 253 243 236 229 240 248 249 248 253 242 231 221 221 223 230 236 229
165 172 80 12 294 258 250 262 244 296 277 254 271 264 295 309 320 320 319 321 317 302 285 285 281 277 273 267 266 248 246 244 248 249 239 239 245 251 246 240 241 229 222 217 216 223 214 208 216
226 233 72 180 187 239 296 262 189 231 243 256 265 280 301 305 318 316 314 308 313 297 277 284 282 276 271 265 267 252 243 240 236 243 244 243 251 252 238 233 228 222 216 213 218 209 203 208 209
200 223 169 200 236 243 275 264 322 287 266 278 286 296 304 307 307 306 304 301 309 301 286 282 276 273 267 262 262 248 238 234 231 236 237 242 247 231 220 226 216 211 216 218 199 200 202 206 206